Flag for Canada Weather past 2 weeks in Welland, Ontario, Canada

Now
69 °F

Mild.


Feels Like: 69 °F
Forecast: 63 / 79 °F
Wind: 18 mph from West

Location: Port Colborne Airport

Current Time: Jul 31, 2014 at 8:37:19 PM

Latest Report: Jul 31, 2014 at 8:00 PM


Visibility: N/A

Pressure: 30.06 "Hg

Humidity: 62%

Dew point: 55 °F

Location of WellandLocation

Historic Weather in Welland — Graph

°F

Welland temperature yesterday

Maximum temperature yesterday: 68 °F (at 11:00 PM)
Minimum temperature yesterday: 62 °F (at 12:00 AM)
Average temperature yesterday: 66 °F

Past Weeks' High & Low Weather Summary

 TemperatureHumidityPressure
High76 °F (Jul 22, 11:00 PM)94% (Jul 27, 5:00 AM)30.26 "Hg (Jul 27, 5:00 AM)
Low54 °F (Jul 29, 3:00 AM)37% (Jul 24, 5:00 PM)29.58 "Hg (Jul 28, 4:00 AM)
Average67 °F72%30.00 "Hg
* Reported Jul 16 7:00 PM — Jul 31 7:00 PM, Welland, Weather by CustomWeather, © 2014

Note: Actual official high and low records may vary slightly from our data, if they occured in-between our weather recording intervals... More about our weather records

Advertising

Welland weather history for previous 24 hours

 ConditionsComfort  
Time TempWeatherWind HumidityBarometerVisibility
7:00 PM
Jul 31
69 °FMild.20 mph61%30.06 "HgN/A
6:00 PM69 °FMild.21 mph59%30.06 "HgN/A
5:00 PM68 °FMild.24 mph57%30.04 "HgN/A
4:00 PM68 °FMild.23 mph66%30.04 "HgN/A
3:00 PM68 °FMild.23 mph64%30.04 "HgN/A
2:00 PM68 °FMild.25 mph67%30.03 "HgN/A
1:00 PM68 °FMild.25 mph67%30.02 "HgN/A
12:00 PM67 °FMild.22 mph75%30.01 "HgN/A
11:00 AM67 °FMild.18 mph76%30.01 "HgN/A
10:00 AM64 °FMild.10 mph82%30.01 "HgN/A
9:00 AM65 °FMild.16 mph76%30.00 "HgN/A
8:00 AM64 °FMild.18 mph80%30.00 "HgN/A
7:00 AM63 °FMild.15 mph82%29.99 "HgN/A
6:00 AM63 °FMild.13 mph81%29.99 "HgN/A
5:00 AM60 °FCool.2 mph87%29.99 "HgN/A
4:00 AM60 °FCool.7 mph80%29.96 "HgN/A
3:00 AM64 °FMild.12 mph62%30.00 "HgN/A
2:00 AM64 °FMild.2 mph61%29.98 "HgN/A
1:00 AM64 °FMild.7 mph60%29.99 "HgN/A
12:00 AM65 °FMild.9 mph62%29.99 "HgN/A
11:00 PM
Jul 30
68 °FMild.15 mph66%30.00 "HgN/A
10:00 PM68 °FMild.18 mph74%29.99 "HgN/A
9:00 PM67 °FMild.17 mph73%29.97 "HgN/A
8:00 PM67 °FMild.16 mph74%29.97 "HgN/A
Weather by CustomWeather, © 2014

See weather overviewHow to use our weather pages